| time (UTC) | temp F | wind direction | speed MPH | gust MPH | rain 1hr in | rain 24hr in | rain mn in | humidity % | barometer mb |
| 20260831082523 | 48 | 244 | 0.0 | 0.0 | 0.00 | 0.00 | 0.00 | 91 | 1014.0 |
| 20260831082018 | 48 | 157 | 0.0 | 0.0 | 0.00 | 0.00 | 0.00 | 91 | 1014.0 |
| 20260831081335 | 48 | 168 | 0.0 | 0.0 | 0.00 | 0.00 | 0.00 | 91 | 1014.0 |
| 20260831080831 | 48 | 168 | 0.0 | 0.0 | 0.00 | 0.00 | 0.00 | 91 | 1014.0 |
| 20260831080330 | 48 | 197 | 0.0 | 0.0 | 0.00 | 0.00 | 0.00 | 91 | 1014.0 |
| 20260831075826 | 48 | 197 | 0.0 | 0.0 | 0.00 | 0.00 | 0.00 | 91 | 1014.0 |
| 20260831075321 | 48 | 197 | 0.0 | 0.0 | 0.00 | 0.00 | 0.00 | 91 | 1014.0 |
| 20260831074222 | 49 | 198 | 0.0 | 0.0 | 0.00 | 0.00 | 0.00 | 91 | 1013.6 |
| 20260831073718 | 49 | 198 | 0.0 | 0.0 | 0.00 | 0.00 | 0.00 | 91 | 1013.6 |
| 20260831073217 | 48 | 174 | 0.0 | 0.0 | 0.00 | 0.00 | 0.00 | 91 | 1013.6 |
| 20260831072712 | 48 | 206 | 0.0 | 0.0 | 0.00 | 0.00 | 0.00 | 91 | 1013.6 |
| 20260831072209 | 48 | 201 | 0.0 | 0.0 | 0.00 | 0.00 | 0.00 | 92 | 1013.6 |
| 20260831071708 | 48 | 172 | 0.0 | 0.0 | 0.00 | 0.00 | 0.00 | 92 | 1013.6 |
| 20260831071203 | 48 | 172 | 0.0 | 0.0 | 0.00 | 0.00 | 0.00 | 92 | 1013.6 |
| 20260831070702 | 49 | 198 | 0.0 | 0.0 | 0.00 | 0.00 | 0.00 | 92 | 1013.6 |
| 20260831070156 | 49 | 198 | 0.0 | 0.0 | 0.00 | 0.00 | 0.00 | 92 | 1013.6 |
| 20260831065650 | 49 | 217 | 0.0 | 0.0 | 0.00 | 0.00 | 0.00 | 92 | 1013.3 |
| 20260831065149 | 49 | 120 | 0.0 | 0.0 | 0.00 | 0.00 | 0.00 | 92 | 1013.6 |
| 20260831064643 | 49 | 120 | 0.0 | 0.0 | 0.00 | 0.00 | 0.00 | 92 | 1013.6 |
| 20260831064133 | 49 | 94 | 0.0 | 0.0 | 0.00 | 0.00 | 0.00 | 92 | 1013.6 |
| 20260831063629 | 49 | 163 | 0.0 | 0.0 | 0.00 | 0.00 | 0.00 | 92 | 1013.6 |
| 20260831063119 | 49 | 230 | 0.0 | 0.0 | 0.00 | 0.00 | 0.00 | 92 | 1013.3 |
| 20260831062619 | 49 | 8 | 0.0 | 0.0 | 0.00 | 0.00 | 0.00 | 92 | 1013.6 |
| 20260831062118 | 49 | 8 | 0.0 | 0.0 | 0.00 | 0.00 | 0.00 | 92 | 1013.6 |
| 20260831061616 | 49 | 198 | 0.0 | 0.0 | 0.00 | 0.00 | 0.00 | 92 | 1013.6 |
| 20260831061113 | 49 | 198 | 0.0 | 0.0 | 0.00 | 0.00 | 0.00 | 92 | 1013.6 |
| 20260831060609 | 49 | 165 | 0.0 | 0.0 | 0.00 | 0.00 | 0.00 | 92 | 1013.3 |
| 20260831055602 | 49 | 288 | 0.0 | 0.0 | 0.00 | 0.00 | 0.00 | 92 | 1013.3 |
| 20260831055058 | 49 | 198 | 0.0 | 0.0 | 0.00 | 0.00 | 0.00 | 92 | 1013.3 |
| 20260831054557 | 49 | 171 | 0.0 | 0.0 | 0.00 | 0.00 | 0.00 | 92 | 1013.3 |
| 20260831054057 | 49 | 167 | 0.0 | 0.0 | 0.00 | 0.00 | 0.00 | 92 | 1013.3 |
| 20260831053555 | 49 | 231 | 0.0 | 0.0 | 0.00 | 0.00 | 0.00 | 92 | 1013.3 |
| 20260831053050 | 49 | 199 | 0.0 | 0.0 | 0.00 | 0.00 | 0.00 | 92 | 1013.3 |
| 20260831052549 | 49 | 179 | 0.0 | 0.0 | 0.00 | 0.00 | 0.00 | 92 | 1013.3 |
| 20260831052049 | 49 | 238 | 0.0 | 0.0 | 0.00 | 0.00 | 0.00 | 92 | 1013.3 |
| 20260831051542 | 49 | 210 | 0.0 | 0.0 | 0.00 | 0.00 | 0.00 | 92 | 1013.3 |
| 20260831051041 | 49 | 173 | 0.0 | 0.0 | 0.00 | 0.00 | 0.00 | 92 | 1012.9 |
| 20260831050541 | 49 | 173 | 0.0 | 0.0 | 0.00 | 0.00 | 0.00 | 92 | 1012.9 |
| 20260831050040 | 49 | 203 | 0.0 | 0.0 | 0.00 | 0.00 | 0.00 | 92 | 1013.3 |
| 20260831045539 | 49 | 186 | 0.0 | 0.0 | 0.00 | 0.00 | 0.00 | 92 | 1013.3 |
| 20260831045035 | 50 | 151 | 0.0 | 0.0 | 0.00 | 0.00 | 0.00 | 92 | 1013.3 |
| 20260831044530 | 50 | 151 | 0.0 | 0.0 | 0.00 | 0.00 | 0.00 | 92 | 1013.3 |
| 20260831044025 | 50 | 246 | 0.0 | 0.0 | 0.00 | 0.00 | 0.00 | 92 | 1013.3 |
| 20260831043525 | 50 | 246 | 0.0 | 0.0 | 0.00 | 0.00 | 0.00 | 92 | 1013.3 |
| 20260831043020 | 50 | 246 | 0.0 | 0.0 | 0.00 | 0.00 | 0.00 | 92 | 1013.3 |
| 20260831042404 | 50 | 214 | 0.0 | 0.0 | 0.00 | 0.00 | 0.00 | 92 | 1012.9 |
| 20260831041859 | 50 | 214 | 0.0 | 0.0 | 0.00 | 0.00 | 0.00 | 92 | 1012.9 |
| 20260831041358 | 50 | 194 | 0.0 | 0.0 | 0.00 | 0.00 | 0.00 | 92 | 1013.3 |
| 20260831040853 | 50 | 194 | 0.0 | 0.0 | 0.00 | 0.00 | 0.00 | 92 | 1013.3 |
| 20260831040348 | 50 | 194 | 0.0 | 0.0 | 0.00 | 0.00 | 0.00 | 92 | 1013.3 |
| 20260831035846 | 50 | 201 | 0.0 | 0.0 | 0.00 | 0.08 | 0.08 | 92 | 1012.9 |
| 20260831035345 | 50 | 201 | 0.0 | 0.0 | 0.00 | 0.08 | 0.08 | 92 | 1012.9 |
| 20260831034839 | 50 | 210 | 0.0 | 0.0 | 0.00 | 0.08 | 0.08 | 92 | 1012.9 |
| 20260831034335 | 50 | 194 | 0.0 | 0.0 | 0.00 | 0.08 | 0.08 | 92 | 1012.9 |
| 20260831033830 | 50 | 194 | 0.0 | 0.0 | 0.00 | 0.08 | 0.08 | 92 | 1012.9 |
| 20260831033324 | 50 | 135 | 0.0 | 0.0 | 0.00 | 0.08 | 0.08 | 92 | 1012.6 |
| 20260831032820 | 50 | 123 | 0.0 | 0.0 | 0.00 | 0.08 | 0.08 | 92 | 1012.9 |
| 20260831032319 | 50 | 179 | 0.0 | 0.0 | 0.00 | 0.08 | 0.08 | 92 | 1012.9 |
| 20260831031642 | 51 | 164 | 0.0 | 0.0 | 0.00 | 0.08 | 0.08 | 92 | 1012.6 |
| 20260831031141 | 51 | 164 | 0.0 | 0.0 | 0.00 | 0.08 | 0.08 | 92 | 1012.6 |
| 20260831030640 | 51 | 164 | 0.0 | 0.0 | 0.00 | 0.08 | 0.08 | 92 | 1012.6 |
| 20260831030139 | 51 | 234 | 0.0 | 0.0 | 0.00 | 0.08 | 0.08 | 92 | 1012.6 |
| 20260831025638 | 51 | 202 | 0.0 | 0.0 | 0.00 | 0.08 | 0.08 | 92 | 1012.6 |
| 20260831025133 | 51 | 84 | 0.0 | 0.0 | 0.00 | 0.08 | 0.08 | 92 | 1012.6 |
| 20260831024629 | 51 | 189 | 0.0 | 0.0 | 0.00 | 0.08 | 0.08 | 92 | 1012.6 |
| 20260831024128 | 51 | 143 | 0.0 | 0.0 | 0.00 | 0.08 | 0.08 | 92 | 1012.6 |
| 20260831023626 | 51 | 242 | 0.0 | 0.0 | 0.00 | 0.08 | 0.08 | 92 | 1012.6 |
| 20260831023126 | 51 | 242 | 0.0 | 0.0 | 0.00 | 0.08 | 0.08 | 92 | 1012.6 |
| 20260831022620 | 51 | 221 | 0.0 | 0.0 | 0.00 | 0.08 | 0.08 | 92 | 1012.6 |
| 20260831022058 | 51 | 197 | 0.0 | 0.0 | 0.00 | 0.08 | 0.08 | 92 | 1012.6 |
| 20260831021556 | 51 | 197 | 0.0 | 0.0 | 0.00 | 0.08 | 0.08 | 92 | 1012.6 |
| 20260831021053 | 51 | 215 | 0.0 | 0.0 | 0.00 | 0.08 | 0.08 | 92 | 1012.6 |
| 20260831020547 | 51 | 215 | 0.0 | 0.0 | 0.00 | 0.08 | 0.08 | 92 | 1012.6 |
| 20260831020037 | 51 | 210 | 0.0 | 0.0 | 0.00 | 0.08 | 0.08 | 92 | 1012.6 |
| 20260831015532 | 51 | 210 | 0.0 | 0.0 | 0.00 | 0.08 | 0.08 | 92 | 1012.6 |
| 20260831014846 | 52 | 212 | 0.0 | 0.0 | 0.00 | 0.08 | 0.08 | 92 | 1012.6 |
| 20260831014341 | 52 | 212 | 0.0 | 0.0 | 0.00 | 0.08 | 0.08 | 92 | 1012.6 |
| 20260831013838 | 52 | 208 | 0.0 | 0.0 | 0.00 | 0.08 | 0.08 | 92 | 1012.2 |
| 20260831013338 | 52 | 196 | 0.0 | 0.0 | 0.00 | 0.08 | 0.08 | 92 | 1012.6 |
| 20260831012832 | 53 | 199 | 0.0 | 0.0 | 0.00 | 0.08 | 0.08 | 92 | 1012.6 |
| 20260831012328 | 53 | 199 | 0.0 | 0.0 | 0.00 | 0.08 | 0.08 | 92 | 1012.6 |
| 20260831011827 | 53 | 209 | 0.0 | 0.0 | 0.00 | 0.08 | 0.08 | 92 | 1012.6 |
| 20260831011323 | 53 | 192 | 0.0 | 0.0 | 0.00 | 0.08 | 0.08 | 92 | 1012.2 |
| 20260831010818 | 54 | 209 | 0.0 | 0.0 | 0.00 | 0.08 | 0.08 | 92 | 1012.2 |
| 20260831010019 | 54 | 184 | 0.0 | 0.0 | 0.00 | 0.08 | 0.08 | 92 | 1012.2 |
| 20260831005519 | 54 | 184 | 0.0 | 0.0 | 0.00 | 0.08 | 0.08 | 92 | 1012.2 |
| 20260831005019 | 54 | 205 | 0.0 | 0.0 | 0.00 | 0.08 | 0.08 | 92 | 1012.2 |
| 20260831004515 | 54 | 204 | 0.0 | 0.0 | 0.00 | 0.08 | 0.08 | 91 | 1012.2 |
| 20260831004010 | 54 | 201 | 0.0 | 0.0 | 0.00 | 0.08 | 0.08 | 91 | 1012.2 |
| 20260831003506 | 54 | 202 | 0.0 | 0.0 | 0.00 | 0.08 | 0.08 | 91 | 1011.9 |
| 20260831003001 | 54 | 202 | 0.0 | 0.0 | 0.00 | 0.08 | 0.08 | 91 | 1011.9 |
| 20260831002500 | 54 | 202 | 0.0 | 0.0 | 0.00 | 0.08 | 0.08 | 91 | 1011.9 |
| 20260831001955 | 55 | 205 | 0.0 | 0.0 | 0.00 | 0.08 | 0.08 | 91 | 1011.9 |
| 20260831001450 | 55 | 199 | 0.0 | 0.0 | 0.00 | 0.08 | 0.08 | 91 | 1011.9 |
| 20260831000948 | 55 | 182 | 0.0 | 0.0 | 0.00 | 0.08 | 0.08 | 91 | 1011.9 |
| 20260831000443 | 55 | 182 | 0.0 | 0.0 | 0.00 | 0.08 | 0.08 | 91 | 1011.9 |
| 20260830235935 | 55 | 218 | 0.0 | 0.0 | 0.00 | 0.08 | 0.08 | 91 | 1011.9 |
| 20260830235430 | 55 | 185 | 0.0 | 0.0 | 0.00 | 0.08 | 0.08 | 91 | 1011.6 |
| 20260830234925 | 55 | 186 | 0.0 | 0.0 | 0.00 | 0.08 | 0.08 | 91 | 1011.6 |
| 20260830234420 | 55 | 203 | 0.0 | 0.0 | 0.00 | 0.08 | 0.08 | 91 | 1011.6 |
| 20260830233854 | 55 | 200 | 0.0 | 0.0 | 0.00 | 0.08 | 0.08 | 90 | 1011.6 |
| 20260830233349 | 55 | 200 | 0.0 | 0.0 | 0.00 | 0.08 | 0.08 | 90 | 1011.6 |
| 20260830232844 | 56 | 217 | 0.0 | 0.0 | 0.00 | 0.08 | 0.08 | 90 | 1011.6 |
| 20260830232340 | 56 | 192 | 0.0 | 0.0 | 0.00 | 0.08 | 0.08 | 90 | 1011.6 |
| 20260830231836 | 56 | 186 | 0.0 | 0.0 | 0.00 | 0.08 | 0.08 | 90 | 1011.6 |
| 20260830231331 | 56 | 208 | 0.0 | 0.0 | 0.00 | 0.08 | 0.08 | 89 | 1011.6 |
| 20260830230830 | 56 | 208 | 0.0 | 0.0 | 0.00 | 0.08 | 0.08 | 89 | 1011.6 |
| 20260830230326 | 56 | 200 | 0.0 | 0.0 | 0.00 | 0.08 | 0.08 | 89 | 1011.2 |
| 20260830225825 | 56 | 195 | 0.0 | 0.0 | 0.00 | 0.08 | 0.08 | 89 | 1011.2 |
| 20260830225320 | 56 | 195 | 0.0 | 0.0 | 0.00 | 0.08 | 0.08 | 89 | 1011.2 |
| 20260830224452 | 57 | 199 | 0.0 | 0.0 | 0.00 | 0.08 | 0.08 | 87 | 1011.2 |
| 20260830223949 | 57 | 199 | 0.0 | 0.0 | 0.00 | 0.08 | 0.08 | 87 | 1011.2 |
| 20260830223446 | 57 | 184 | 0.0 | 0.0 | 0.00 | 0.08 | 0.08 | 86 | 1011.2 |
| 20260830222945 | 57 | 183 | 0.0 | 0.0 | 0.00 | 0.08 | 0.08 | 85 | 1011.2 |
| 20260830222440 | 57 | 185 | 0.0 | 0.0 | 0.00 | 0.08 | 0.08 | 84 | 1011.2 |
| 20260830221930 | 57 | 207 | 0.0 | 0.0 | 0.00 | 0.08 | 0.08 | 83 | 1011.2 |
| 20260830221426 | 57 | 207 | 0.0 | 0.0 | 0.00 | 0.08 | 0.08 | 83 | 1011.2 |
| 20260830220922 | 57 | 201 | 0.0 | 0.0 | 0.00 | 0.08 | 0.08 | 82 | 1011.2 |
| 20260830220422 | 58 | 192 | 0.0 | 0.0 | 0.00 | 0.08 | 0.08 | 80 | 1011.2 |
| 20260830215919 | 58 | 192 | 0.0 | 0.0 | 0.00 | 0.08 | 0.08 | 80 | 1011.2 |
| 20260830215149 | 59 | 114 | 0.0 | 0.0 | 0.14 | 0.08 | 0.08 | 76 | 1011.6 |
| 20260830214645 | 59 | 114 | 0.0 | 0.0 | 0.14 | 0.08 | 0.08 | 76 | 1011.6 |
| 20260830214139 | 59 | 201 | 0.0 | 0.0 | 0.07 | 0.07 | 0.07 | 76 | 1011.6 |
| 20260830213638 | 59 | 185 | 0.0 | 0.0 | 0.07 | 0.06 | 0.06 | 75 | 1011.6 |
| 20260830213134 | 60 | 293 | 0.0 | 0.0 | 0.07 | 0.05 | 0.05 | 74 | 1011.6 |
| 20260830212630 | 60 | 250 | 0.0 | 0.0 | 0.00 | 0.04 | 0.04 | 72 | 1011.6 |
| 20260830212125 | 60 | 250 | 0.0 | 0.0 | 0.00 | 0.04 | 0.04 | 72 | 1011.6 |
| 20260830211620 | 60 | 143 | 0.0 | 0.0 | 0.00 | 0.04 | 0.04 | 72 | 1011.6 |
| 20260830211119 | 61 | 195 | 0.0 | 0.0 | 0.00 | 0.04 | 0.04 | 71 | 1011.2 |
| 20260830210614 | 61 | 194 | 0.0 | 0.0 | 0.00 | 0.04 | 0.04 | 71 | 1011.2 |
| 20260830210114 | 61 | 195 | 0.0 | 0.0 | 0.00 | 0.04 | 0.04 | 70 | 1010.9 |
| 20260830205610 | 61 | 266 | 0.0 | 0.0 | 0.00 | 0.04 | 0.04 | 69 | 1010.9 |
| 20260830205107 | 62 | 197 | 0.0 | 0.0 | 0.00 | 0.04 | 0.04 | 69 | 1010.9 |
| 20260830204606 | 62 | 313 | 0.0 | 0.0 | 0.00 | 0.04 | 0.04 | 67 | 1010.9 |
| 20260830204105 | 62 | 156 | 0.0 | 0.0 | 0.00 | 0.04 | 0.04 | 66 | 1010.9 |
| 20260830203602 | 62 | 211 | 0.0 | 0.0 | 0.00 | 0.04 | 0.04 | 66 | 1011.2 |
| 20260830203056 | 63 | 32 | 0.0 | 0.0 | 0.00 | 0.04 | 0.04 | 64 | 1011.2 |
| 20260830202550 | 63 | 32 | 0.0 | 0.0 | 0.00 | 0.04 | 0.04 | 64 | 1011.2 |
| 20260830202046 | 64 | 345 | 0.0 | 0.0 | 0.00 | 0.04 | 0.04 | 63 | 1011.2 |
| 20260830201545 | 65 | 135 | 0.0 | 2.0 | 0.00 | 0.04 | 0.04 | 62 | 1010.9 |
| 20260830201040 | 66 | 164 | 0.0 | 0.0 | 0.00 | 0.04 | 0.04 | 62 | 1010.9 |
| 20260830200536 | 66 | 157 | 0.0 | 0.0 | 0.00 | 0.04 | 0.04 | 62 | 1010.9 |
| 20260830200034 | 66 | 157 | 0.0 | 0.0 | 0.00 | 0.04 | 0.04 | 62 | 1010.9 |
| 20260830195531 | 64 | 126 | 0.0 | 0.0 | 0.00 | 0.04 | 0.04 | 63 | 1010.6 |
| 20260830195028 | 63 | 354 | 0.0 | 2.0 | 0.00 | 0.04 | 0.04 | 63 | 1010.6 |
| 20260830194528 | 63 | 354 | 0.0 | 2.0 | 0.00 | 0.04 | 0.04 | 63 | 1010.6 |
| 20260830194027 | 66 | 99 | 0.0 | 0.0 | 0.00 | 0.04 | 0.04 | 61 | 1010.2 |
| 20260830193527 | 66 | 99 | 0.0 | 0.0 | 0.00 | 0.04 | 0.04 | 61 | 1010.2 |
| 20260830193022 | 66 | 99 | 0.0 | 0.0 | 0.00 | 0.04 | 0.04 | 61 | 1010.2 |
| 20260830192426 | 69 | 161 | 0.0 | 0.0 | 0.00 | 0.04 | 0.04 | 56 | 1010.6 |
| 20260830191921 | 69 | 161 | 0.0 | 0.0 | 0.00 | 0.04 | 0.04 | 56 | 1010.6 |
| 20260830191420 | 69 | 182 | 0.0 | 0.0 | 0.00 | 0.04 | 0.04 | 56 | 1010.2 |
| 20260830190702 | 69 | 204 | 0.0 | 0.0 | 0.00 | 0.04 | 0.04 | 58 | 1010.6 |
| 20260830190157 | 69 | 204 | 0.0 | 0.0 | 0.00 | 0.04 | 0.04 | 58 | 1010.6 |
| 20260830185655 | 68 | 176 | 0.0 | 0.0 | 0.00 | 0.04 | 0.04 | 61 | 1010.2 |
| 20260830185151 | 68 | 171 | 0.0 | 0.0 | 0.00 | 0.04 | 0.04 | 59 | 1010.2 |
| 20260830184650 | 66 | 188 | 0.0 | 0.0 | 0.00 | 0.04 | 0.04 | 64 | 1010.6 |
| 20260830184150 | 66 | 188 | 0.0 | 0.0 | 0.00 | 0.04 | 0.04 | 64 | 1010.6 |
| 20260830183645 | 66 | 188 | 0.0 | 0.0 | 0.00 | 0.04 | 0.04 | 64 | 1010.6 |
| 20260830183135 | 65 | 28 | 0.0 | 0.0 | 0.07 | 0.04 | 0.04 | 65 | 1010.9 |
| 20260830182630 | 65 | 28 | 0.0 | 0.0 | 0.07 | 0.04 | 0.04 | 65 | 1010.9 |
| 20260830182126 | 67 | 323 | 0.0 | 0.0 | 0.00 | 0.02 | 0.02 | 62 | 1010.9 |
| 20260830181622 | 68 | 220 | 0.0 | 0.0 | 0.00 | 0.02 | 0.02 | 59 | 1010.9 |
| 20260830181121 | 68 | 220 | 0.0 | 0.0 | 0.00 | 0.02 | 0.02 | 59 | 1010.9 |
| 20260830180620 | 71 | 332 | 0.0 | 2.0 | 0.00 | 0.02 | 0.02 | 53 | 1010.9 |
| 20260830180121 | 71 | 332 | 0.0 | 2.0 | 0.00 | 0.02 | 0.02 | 53 | 1010.9 |
| 20260830175619 | 71 | 332 | 0.0 | 2.0 | 0.00 | 0.02 | 0.02 | 53 | 1010.9 |
| 20260830174936 | 69 | 121 | 0.0 | 0.0 | 0.00 | 0.02 | 0.02 | 60 | 1010.9 |
| 20260830174431 | 69 | 121 | 0.0 | 0.0 | 0.00 | 0.02 | 0.02 | 60 | 1010.9 |
| 20260830173921 | 68 | 229 | 0.0 | 0.0 | 0.00 | 0.02 | 0.02 | 63 | 1011.2 |
| 20260830173417 | 66 | 183 | 0.0 | 0.0 | 0.00 | 0.02 | 0.02 | 72 | 1010.9 |
| 20260830172912 | 64 | 212 | 0.0 | 0.0 | 0.00 | 0.02 | 0.02 | 73 | 1010.9 |
| 20260830172409 | 64 | 212 | 0.0 | 0.0 | 0.00 | 0.02 | 0.02 | 73 | 1010.9 |
| 20260830171904 | 63 | 202 | 0.0 | 0.0 | 0.00 | 0.02 | 0.02 | 72 | 1011.2 |
| 20260830171359 | 63 | 202 | 0.0 | 0.0 | 0.00 | 0.02 | 0.02 | 72 | 1011.2 |
| 20260830170854 | 63 | 14 | 0.0 | 0.0 | 0.14 | 0.02 | 0.02 | 68 | 1011.2 |
| 20260830170354 | 64 | 230 | 0.0 | 0.0 | 0.07 | 0.01 | 0.01 | 64 | 1011.2 |
| 20260830165852 | 72 | 213 | 0.0 | 0.0 | 0.00 | 0.00 | 0.00 | 44 | 1010.9 |
| 20260830165348 | 72 | 213 | 0.0 | 0.0 | 0.00 | 0.00 | 0.00 | 44 | 1010.9 |
| 20260830164844 | 72 | 213 | 0.0 | 0.0 | 0.00 | 0.00 | 0.00 | 44 | 1010.9 |
| 20260830164339 | 75 | 144 | 0.0 | 5.0 | 0.00 | 0.00 | 0.00 | 40 | 1011.2 |
| 20260830163836 | 75 | 144 | 0.0 | 5.0 | 0.00 | 0.00 | 0.00 | 40 | 1011.2 |
| 20260830163331 | 72 | 144 | 0.0 | 2.0 | 0.00 | 0.00 | 0.00 | 42 | 1011.2 |
| 20260830162826 | 74 | 156 | 0.0 | 0.0 | 0.00 | 0.00 | 0.00 | 39 | 1011.2 |
| 20260830162323 | 74 | 156 | 0.0 | 0.0 | 0.00 | 0.00 | 0.00 | 39 | 1011.2 |
| 20260830161823 | 73 | 185 | 0.0 | 2.0 | 0.00 | 0.00 | 0.00 | 41 | 1011.6 |
| 20260830161321 | 74 | 256 | 0.0 | 2.0 | 0.00 | 0.00 | 0.00 | 43 | 1011.6 |
| 20260830160817 | 74 | 256 | 0.0 | 2.0 | 0.00 | 0.00 | 0.00 | 43 | 1011.6 |
| 20260830155947 | 73 | 199 | 0.0 | 2.0 | 0.00 | 0.00 | 0.00 | 46 | 1011.6 |
| 20260830155443 | 73 | 199 | 0.0 | 2.0 | 0.00 | 0.00 | 0.00 | 46 | 1011.6 |
| 20260830154938 | 73 | 110 | 0.0 | 0.0 | 0.00 | 0.00 | 0.00 | 46 | 1011.9 |
| 20260830154434 | 73 | 110 | 0.0 | 0.0 | 0.00 | 0.00 | 0.00 | 46 | 1011.9 |
| 20260830153930 | 73 | 303 | 0.0 | 0.0 | 0.00 | 0.00 | 0.00 | 47 | 1011.9 |
| 20260830153426 | 73 | 303 | 0.0 | 0.0 | 0.00 | 0.00 | 0.00 | 47 | 1011.9 |
| 20260830152925 | 73 | 280 | 0.0 | 0.0 | 0.00 | 0.00 | 0.00 | 47 | 1011.9 |
| 20260830152420 | 72 | 38 | 0.0 | 2.0 | 0.00 | 0.00 | 0.00 | 46 | 1011.9 |
| 20260830151919 | 72 | 121 | 0.0 | 2.0 | 0.00 | 0.00 | 0.00 | 44 | 1011.9 |
| 20260830151419 | 73 | 68 | 0.0 | 2.0 | 0.00 | 0.00 | 0.00 | 49 | 1012.2 |
| 20260830150729 | 72 | 111 | 0.0 | 0.0 | 0.00 | 0.00 | 0.00 | 48 | 1012.2 |
| 20260830150228 | 72 | 111 | 0.0 | 0.0 | 0.00 | 0.00 | 0.00 | 48 | 1012.2 |
| 20260830145723 | 72 | 111 | 0.0 | 0.0 | 0.00 | 0.00 | 0.00 | 48 | 1012.2 |
| 20260830145218 | 72 | 122 | 0.0 | 0.0 | 0.00 | 0.00 | 0.00 | 54 | 1012.2 |
| 20260830144718 | 71 | 252 | 0.0 | 0.0 | 0.00 | 0.00 | 0.00 | 51 | 1012.2 |
| 20260830143029 | 71 | 197 | 0.0 | 0.0 | 0.00 | 0.00 | 0.00 | 51 | 1012.2 |
| 20260830142525 | 71 | 197 | 0.0 | 0.0 | 0.00 | 0.00 | 0.00 | 51 | 1012.2 |
| 20260830142020 | 71 | 192 | 0.0 | 2.0 | 0.00 | 0.00 | 0.00 | 54 | 1012.6 |
| 20260830141340 | 70 | 137 | 0.0 | 0.0 | 0.00 | 0.00 | 0.00 | 56 | 1012.9 |
| 20260830140835 | 70 | 137 | 0.0 | 0.0 | 0.00 | 0.00 | 0.00 | 56 | 1012.9 |
| 20260830140330 | 70 | 178 | 0.0 | 5.0 | 0.00 | 0.00 | 0.00 | 54 | 1012.9 |
| 20260830135825 | 69 | 215 | 0.0 | 0.0 | 0.00 | 0.00 | 0.00 | 58 | 1011.6 |
| 20260830135320 | 69 | 215 | 0.0 | 0.0 | 0.00 | 0.00 | 0.00 | 58 | 1011.6 |
| 20260830134334 | 69 | 152 | 0.0 | 0.0 | 0.00 | 0.00 | 0.00 | 60 | 1012.2 |
| 20260830133830 | 69 | 152 | 0.0 | 0.0 | 0.00 | 0.00 | 0.00 | 60 | 1012.2 |
| 20260830133325 | 68 | 195 | 0.0 | 0.0 | 0.00 | 0.00 | 0.00 | 61 | 1012.2 |
| 20260830132825 | 68 | 195 | 0.0 | 0.0 | 0.00 | 0.00 | 0.00 | 61 | 1012.2 |
| 20260830132321 | 68 | 175 | 0.0 | 0.0 | 0.00 | 0.00 | 0.00 | 61 | 1012.2 |
| 20260830131815 | 68 | 220 | 0.0 | 0.0 | 0.00 | 0.00 | 0.00 | 59 | 1012.6 |
| 20260830131310 | 68 | 220 | 0.0 | 0.0 | 0.00 | 0.00 | 0.00 | 59 | 1012.6 |
| 20260830130805 | 68 | 190 | 0.0 | 0.0 | 0.00 | 0.00 | 0.00 | 60 | 1012.2 |
| 20260830130300 | 68 | 190 | 0.0 | 0.0 | 0.00 | 0.00 | 0.00 | 60 | 1012.2 |
| 20260830125758 | 66 | 215 | 0.0 | 0.0 | 0.00 | 0.00 | 0.00 | 63 | 1012.2 |
| 20260830125254 | 65 | 198 | 0.0 | 0.0 | 0.00 | 0.00 | 0.00 | 64 | 1012.2 |
| 20260830124752 | 65 | 194 | 0.0 | 0.0 | 0.00 | 0.00 | 0.00 | 65 | 1012.6 |
| 20260830124247 | 65 | 194 | 0.0 | 0.0 | 0.00 | 0.00 | 0.00 | 65 | 1012.6 |
| 20260830123744 | 64 | 170 | 0.0 | 0.0 | 0.00 | 0.00 | 0.00 | 65 | 1012.6 |
| 20260830123240 | 64 | 170 | 0.0 | 0.0 | 0.00 | 0.00 | 0.00 | 65 | 1012.6 |
| 20260830122737 | 63 | 132 | 0.0 | 0.0 | 0.00 | 0.00 | 0.00 | 65 | 1012.6 |
| 20260830122232 | 63 | 132 | 0.0 | 0.0 | 0.00 | 0.00 | 0.00 | 65 | 1012.6 |
| 20260830121728 | 63 | 144 | 0.0 | 0.0 | 0.00 | 0.00 | 0.00 | 65 | 1012.9 |
| 20260830121227 | 62 | 198 | 0.0 | 0.0 | 0.00 | 0.00 | 0.00 | 67 | 1012.9 |
| 20260830120722 | 62 | 198 | 0.0 | 0.0 | 0.00 | 0.00 | 0.00 | 67 | 1012.9 |
| 20260830120218 | 60 | 211 | 0.0 | 0.0 | 0.00 | 0.00 | 0.00 | 69 | 1012.9 |
| 20260830115714 | 60 | 211 | 0.0 | 0.0 | 0.00 | 0.00 | 0.00 | 69 | 1012.9 |
| 20260830115210 | 59 | 194 | 0.0 | 0.0 | 0.00 | 0.00 | 0.00 | 70 | 1012.9 |
| 20260830114706 | 59 | 223 | 0.0 | 0.0 | 0.00 | 0.00 | 0.00 | 70 | 1012.9 |
| 20260830114206 | 59 | 291 | 0.0 | 0.0 | 0.00 | 0.00 | 0.00 | 69 | 1012.9 |
| 20260830113702 | 59 | 241 | 0.0 | 0.0 | 0.00 | 0.00 | 0.00 | 69 | 1012.9 |
| 20260830113156 | 58 | 235 | 0.0 | 0.0 | 0.00 | 0.00 | 0.00 | 70 | 1012.9 |
| 20260830112652 | 58 | 235 | 0.0 | 0.0 | 0.00 | 0.00 | 0.00 | 70 | 1012.9 |
| 20260830112148 | 58 | 247 | 0.0 | 0.0 | 0.00 | 0.00 | 0.00 | 70 | 1012.9 |
| 20260830111643 | 57 | 214 | 0.0 | 0.0 | 0.00 | 0.00 | 0.00 | 71 | 1012.6 |
| 20260830111139 | 57 | 214 | 0.0 | 0.0 | 0.00 | 0.00 | 0.00 | 71 | 1012.6 |
| 20260830110634 | 57 | 183 | 0.0 | 0.0 | 0.00 | 0.00 | 0.00 | 71 | 1012.6 |
| 20260830110130 | 57 | 183 | 0.0 | 0.0 | 0.00 | 0.00 | 0.00 | 71 | 1012.6 |
| 20260830105629 | 57 | 237 | 0.0 | 0.0 | 0.00 | 0.00 | 0.00 | 71 | 1012.2 |
| 20260830105126 | 56 | 245 | 0.0 | 0.0 | 0.00 | 0.00 | 0.00 | 72 | 1012.2 |
| 20260830104622 | 56 | 245 | 0.0 | 0.0 | 0.00 | 0.00 | 0.00 | 72 | 1012.2 |
| 20260830104119 | 55 | 179 | 0.0 | 0.0 | 0.00 | 0.00 | 0.00 | 72 | 1012.6 |
| 20260830103618 | 55 | 211 | 0.0 | 2.0 | 0.00 | 0.00 | 0.00 | 73 | 1012.2 |
| 20260830103113 | 55 | 211 | 0.0 | 2.0 | 0.00 | 0.00 | 0.00 | 73 | 1012.2 |
| 20260830102612 | 54 | 244 | 0.0 | 0.0 | 0.00 | 0.00 | 0.00 | 73 | 1012.2 |
| 20260830102108 | 54 | 244 | 0.0 | 0.0 | 0.00 | 0.00 | 0.00 | 73 | 1012.2 |
| 20260830101603 | 54 | 192 | 0.0 | 0.0 | 0.00 | 0.00 | 0.00 | 74 | 1012.6 |
| 20260830101058 | 54 | 203 | 0.0 | 0.0 | 0.00 | 0.00 | 0.00 | 74 | 1012.2 |
| 20260830100557 | 54 | 203 | 0.0 | 0.0 | 0.00 | 0.00 | 0.00 | 74 | 1012.2 |
| 20260830100056 | 54 | 203 | 0.0 | 0.0 | 0.00 | 0.00 | 0.00 | 74 | 1012.2 |
| 20260830095551 | 54 | 236 | 0.0 | 0.0 | 0.00 | 0.00 | 0.00 | 74 | 1012.2 |
| 20260830095047 | 54 | 236 | 0.0 | 0.0 | 0.00 | 0.00 | 0.00 | 74 | 1012.2 |
| 20260830094543 | 54 | 226 | 0.0 | 0.0 | 0.00 | 0.00 | 0.00 | 74 | 1011.9 |
| 20260830094038 | 54 | 226 | 0.0 | 0.0 | 0.00 | 0.00 | 0.00 | 74 | 1011.9 |
| 20260830093533 | 53 | 182 | 0.0 | 0.0 | 0.00 | 0.00 | 0.00 | 74 | 1011.9 |
| 20260830093029 | 53 | 211 | 0.0 | 0.0 | 0.00 | 0.00 | 0.00 | 74 | 1012.2 |
| 20260830092524 | 53 | 192 | 0.0 | 0.0 | 0.00 | 0.00 | 0.00 | 74 | 1012.2 |
| 20260830092021 | 53 | 194 | 0.0 | 0.0 | 0.00 | 0.00 | 0.00 | 74 | 1012.2 |
| 20260830091516 | 53 | 190 | 0.0 | 0.0 | 0.00 | 0.00 | 0.00 | 75 | 1012.2 |
| 20260830091015 | 53 | 190 | 0.0 | 0.0 | 0.00 | 0.00 | 0.00 | 75 | 1012.2 |
| 20260830090510 | 53 | 195 | 0.0 | 0.0 | 0.00 | 0.00 | 0.00 | 74 | 1012.2 |
| 20260830090005 | 53 | 195 | 0.0 | 0.0 | 0.00 | 0.00 | 0.00 | 74 | 1012.2 |
| 20260830085500 | 54 | 195 | 0.0 | 0.0 | 0.00 | 0.00 | 0.00 | 74 | 1012.2 |
| 20260830084956 | 54 | 196 | 0.0 | 0.0 | 0.00 | 0.00 | 0.00 | 74 | 1012.2 |
| 20260830084450 | 54 | 196 | 0.0 | 0.0 | 0.00 | 0.00 | 0.00 | 74 | 1012.2 |
| 20260830083946 | 54 | 208 | 0.0 | 0.0 | 0.00 | 0.00 | 0.00 | 74 | 1012.2 |
| 20260830083441 | 54 | 191 | 0.0 | 0.0 | 0.00 | 0.00 | 0.00 | 75 | 1012.2 |
| 20260830082941 | 54 | 191 | 0.0 | 0.0 | 0.00 | 0.00 | 0.00 | 75 | 1012.2 |